Latest Weather Observations for Mildura

IDN60801

Issued at 6:02 pm EDT Thursday 23 February 2017 (issued every 30 minutes, with the page automatically refreshed every 10 minutes)

About weather observations | Map of weather stations | Latest weather observations for NSW | Other Formats
Station Details ID: 076031 Name: MILDURA AIRPORT Lat: -34.24 Lon: 142.09 Height: 50.0 m
Data from the previous 72 hours. | See also: Recent months at Mildura
Date/Time
EDT
Temp
°C
App
Temp
°C
Dew
Point
°C
Rel
Hum
%
Delta-T
°C
Wind Press
QNH
hPa
Press
MSL
hPa
Rain since
9am
mm
Dir  Spd
km/h
Gust
km/h
Spd
kts
Gust
kts
23/05:30pm 29.7 27.2 8.2 26 11.8 WSW 11 20 6 11 1017.8 1017.5 0.0
23/05:00pm 29.0 27.0 8.7 28 11.2 WSW 9 17 5 9 1017.9 1017.6 0.0
23/04:30pm 28.4 26.2 9.2 30 10.6 SSE 11 20 6 11 1018.0 1017.7 0.0
23/04:00pm 28.7 26.8 10.4 32 10.3 SSW 11 17 6 9 1018.2 1017.9 0.0
23/03:30pm 28.2 26.8 10.9 34 9.9 S 9 17 5 9 1018.6 1018.3 0.0
23/03:00pm 27.0 24.8 10.7 36 9.2 SW 13 20 7 11 1019.0 1018.7 0.0
23/02:30pm 26.6 24.5 11.1 38 8.8 SW 13 19 7 10 1019.2 1018.9 0.0
23/02:00pm 26.0 24.0 11.4 40 8.3 SW 13 22 7 12 1019.4 1019.1 0.0
23/01:30pm 24.8 22.9 11.7 44 7.4 SSW 13 19 7 10 1019.7 1019.4 0.0
23/01:00pm 24.0 21.8 12.0 47 6.8 S 15 22 8 12 1019.8 1019.5 0.0
23/12:30pm 23.0 20.8 12.0 50 6.2 SSW 15 24 8 13 1020.0 1019.7 0.0
23/12:00pm 22.8 20.3 12.4 52 5.9 SSW 17 26 9 14 1020.3 1020.0 0.0
23/11:30am 21.0 18.8 12.2 57 5.0 SSW 15 26 8 14 1020.4 1020.1 0.0
23/11:00am 21.5 19.8 12.6 57 5.0 S 13 22 7 12 1020.5 1020.2 0.0
23/10:30am 20.1 17.6 12.3 61 4.4 SSW 17 28 9 15 1020.4 1020.1 0.0
23/10:00am 20.1 18.0 12.3 61 4.4 SW 15 22 8 12 1020.1 1019.8 0.0
23/09:30am 19.2 16.3 12.2 64 3.9 S 19 28 10 15 1019.8 1019.5 0.0
23/09:00am 19.0 17.2 12.0 64 3.9 SW 13 22 7 12 1019.4 1019.1 0.0
23/08:30am 17.6 16.6 10.9 65 3.6 W 7 13 4 7 1019.1 1018.8 0.0
23/08:00am 16.2 14.7 10.5 69 3.0 WSW 9 13 5 7 1018.7 1018.4 0.0
23/07:30am 14.9 13.8 10.1 73 2.5 W 6 9 3 5 1018.1 1017.8 0.0
23/07:00am 15.1 14.0 9.9 71 2.7 WSW 6 7 3 4 1017.5 1017.3 0.0
23/06:30am 15.5 14.4 10.1 70 2.8 SW 6 7 3 4 1017.1 1016.9 0.0
23/06:00am 16.2 15.1 9.8 66 3.3 SW 6 7 3 4 1016.8 1016.6 0.0
23/05:30am 17.1 15.8 10.0 63 3.8 SW 7 9 4 5 1016.5 1016.3 0.0
23/05:00am 17.8 16.1 9.9 60 4.2 SSW 9 15 5 8 1016.3 1016.1 0.0
23/04:30am 18.6 16.5 9.9 57 4.6 SSW 11 17 6 9 1016.0 1015.8 0.0
23/04:00am 19.2 16.7 9.7 54 5.1 SSW 13 20 7 11 1015.8 1015.6 0.0
23/03:30am 19.1 16.9 9.3 53 5.2 SSW 11 15 6 8 1015.6 1015.4 0.0
23/03:00am 19.9 17.3 9.2 50 5.7 SSW 13 19 7 10 1015.4 1015.2 0.0
23/02:30am 20.4 17.4 9.3 49 5.9 SW 15 24 8 13 1015.2 1015.0 0.0
23/02:00am 20.7 18.3 8.7 46 6.3 SW 11 17 6 9 1015.0 1014.8 0.0
23/01:30am 21.6 18.0 8.5 43 6.9 SW 17 28 9 15 1014.9 1014.7 0.0
23/01:00am 21.8 19.1 7.2 39 7.5 SW 11 19 6 10 1014.8 1014.6 0.0
23/12:30am 22.6 19.4 6.8 36 8.1 SW 13 20 7 11 1014.5 1014.3 0.0
23/12:00am 23.2 19.8 6.1 33 8.7 SW 13 20 7 11 1014.3 1014.1 0.0
 
Date/Time
EDT
Temp
°C
App
Temp
°C
Dew
Point
°C
Rel
Hum
%
Delta-T
°C
Wind Press
QNH
hPa
Press
MSL
hPa
Rain since
9am
mm
Dir  Spd
km/h
Gust
km/h
Spd
kts
Gust
kts
22/11:30pm 24.0 19.2 5.8 31 9.3 SW 20 32 11 17 1014.0 1013.8 0.0
22/11:00pm 25.3 20.2 6.0 29 10.0 SSW 22 35 12 19 1013.4 1013.2 0.0
22/10:30pm 27.1 22.6 7.0 28 10.7 SSW 20 32 11 17 1012.4 1012.2 0.0
22/10:00pm 27.9 23.8 8.7 30 10.5 SW 20 35 11 19 1011.8 1011.6 0.0
22/09:34pm 28.8 23.9 8.5 28 11.1 SW 24 43 13 23 1010.8 1010.6 0.0
22/09:30pm 29.0 23.2 8.1 27 11.4 SW 28 46 15 25 1010.7 1010.5 0.0
22/09:17pm 29.9 24.1 7.8 25 12.1 SW 28 50 15 27 1010.2 1010.0 0.0
22/09:11pm 30.7 25.4 5.2 20 13.4 WSW 22 44 12 24 1009.8 1009.6 0.0
22/09:00pm 29.5 25.4 -2.9 12 14.7 N 9 11 5 6 1009.0 1008.8 0.0
22/08:30pm 33.3 28.7 -3.8 9 17.0 NNW 11 15 6 8 1008.5 1008.3 0.0
22/08:00pm 34.4 29.4 -4.6 8 17.9 NNW 13 20 7 11 1008.2 1008.0 0.0
22/07:30pm 36.2 31.1 -5.0 7 19.0 NNW 13 22 7 12 1008.1 1007.9 0.0
22/07:00pm 36.8 30.2 -6.6 6 19.6 NW 20 30 11 16 1008.1 1007.9 0.0
22/06:30pm 37.1 30.2 -6.4 6 19.7 NW 22 33 12 18 1008.0 1007.8 0.0
22/06:00pm 37.4 30.1 -6.2 6 19.9 WNW 24 37 13 20 1008.0 1007.8 0.0
22/05:30pm 37.7 30.1 -6.0 6 20.0 NW 26 41 14 22 1008.2 1008.0 0.0
22/05:00pm 37.8 31.5 -3.9 7 19.8 NNW 20 39 11 21 1008.3 1008.1 0.0
22/04:30pm 37.5 31.4 -2.3 8 19.3 NNW 20 33 11 18 1008.5 1008.3 0.0
22/04:00pm 36.6 29.7 -3.0 8 18.9 NNW 24 43 13 23 1009.0 1008.8 0.0
22/03:30pm 36.7 29.8 -2.9 8 18.9 NNW 24 41 13 22 1009.4 1009.2 0.0
22/03:00pm 36.1 28.9 -1.7 9 18.3 NNW 26 43 14 23 1010.2 1010.0 0.0
22/02:30pm 35.3 28.2 -0.9 10 17.7 NNW 26 41 14 22 1010.5 1010.3 0.0
22/02:00pm 35.3 28.6 -0.9 10 17.7 NNW 24 41 13 22 1010.8 1010.6 0.0
22/01:30pm 34.8 28.1 -1.3 10 17.5 NNW 24 43 13 23 1011.2 1011.0 0.0
22/01:00pm 33.7 27.0 -0.8 11 16.7 NNW 24 35 13 19 1011.5 1011.3 0.0
22/12:34pm 33.4 26.0 -1.0 11 16.6 N 28 48 15 26 1011.5 1011.3 0.0
22/12:30pm 32.6 25.4 -1.7 11 16.2 N 26 39 14 21 1011.8 1011.6 0.0
22/12:02pm 32.2 24.6 -2.0 11 16.1 N 28 46 15 25 1012.4 1012.2 0.0
22/12:00pm 32.9 25.9 -0.2 12 16.1 N 26 39 14 21 1012.6 1012.4 0.0
22/11:30am 31.3 24.0 -2.6 11 15.7 N 26 39 14 21 1013.1 1012.9 0.0
22/11:00am 30.9 24.1 -1.8 12 15.3 N 24 33 13 18 1013.6 1013.4 0.0
22/10:30am 29.3 22.2 -0.9 14 14.1 NNE 26 33 14 18 1013.6 1013.4 0.0
22/10:00am 26.8 20.2 -0.3 17 12.6 NNE 24 32 13 17 1013.8 1013.6 0.0
22/09:30am 24.8 18.8 1.0 21 11.2 NNE 22 28 12 15 1014.0 1013.8 0.0
22/09:00am 22.1 16.7 1.2 25 9.6 NNE 19 24 10 13 1014.0 1013.8 0.0
22/08:30am 20.7 15.7 1.1 27 8.9 NE 17 20 9 11 1013.7 1013.5 0.0
22/08:00am 18.5 14.2 1.1 31 7.8 NE 13 17 7 9 1013.7 1013.5 0.0
22/07:30am 16.4 11.7 0.9 35 6.8 NE 15 17 8 9 1013.4 1013.2 0.0
22/07:00am 16.2 11.5 0.7 35 6.7 NE 15 17 8 9 1013.2 1013.0 0.0
22/06:30am 16.1 11.4 1.0 36 6.6 NE 15 17 8 9 1013.1 1012.9 0.0
22/06:00am 15.7 11.8 1.1 37 6.4 NE 11 13 6 7 1013.0 1012.8 0.0
22/05:30am 16.3 12.3 0.8 35 6.8 NE 11 13 6 7 1013.1 1012.9 0.0
22/05:00am 16.7 12.7 0.8 34 7.0 NE 11 13 6 7 1013.0 1012.8 0.0
22/04:30am 16.4 12.4 0.5 34 6.9 NE 11 13 6 7 1013.1 1012.9 0.0
22/04:00am 17.0 13.1 1.0 34 7.0 NE 11 13 6 7 1013.3 1013.1 0.0
22/03:30am 16.0 12.6 2.1 39 6.2 ENE 9 11 5 6 1013.5 1013.3 0.0
22/03:00am 16.6 13.3 2.2 38 6.5 ENE 9 9 5 5 1013.8 1013.6 0.0
22/02:30am 17.7 13.7 0.8 32 7.5 NE 11 11 6 6 1014.3 1014.1 0.0
22/02:00am 18.1 14.7 1.6 33 7.4 NE 9 11 5 6 1014.7 1014.5 0.0
22/01:30am 18.1 15.0 1.6 33 7.4 NE 7 9 4 5 1014.9 1014.7 0.0
22/01:00am 19.2 15.8 1.7 31 8.0 NE 9 11 5 6 1015.3 1015.1 0.0
22/12:30am 19.6 16.6 2.0 31 8.1 NE 7 9 4 5 1015.5 1015.3 0.0
22/12:00am 18.4 15.7 2.7 35 7.2 NE 6 9 3 5 1015.8 1015.6 0.0
 
Date/Time
EDT
Temp
°C
App
Temp
°C
Dew
Point
°C
Rel
Hum
%
Delta-T
°C
Wind Press
QNH
hPa
Press
MSL
hPa
Rain since
9am
mm
Dir  Spd
km/h
Gust
km/h
Spd
kts
Gust
kts
21/11:30pm 18.7 16.0 2.9 35 7.3 NE 6 7 3 4 1015.9 1015.7 0.0
21/11:00pm 18.9 17.1 3.5 36 7.2 NE 2 7 1 4 1015.9 1015.7 0.0
21/10:30pm 19.8 17.3 3.5 34 7.7 ENE 6 7 3 4 1016.2 1016.0 0.0
21/10:00pm 21.2 18.5 3.9 32 8.3 E 7 9 4 5 1016.1 1015.9 0.0
21/09:30pm 22.0 19.4 4.1 31 8.7 ESE 7 9 4 5 1015.9 1015.7 0.0
21/09:00pm 22.7 19.8 2.8 27 9.5 ESE 7 9 4 5 1015.6 1015.4 0.0
21/08:30pm 24.9 21.9 1.7 22 11.0 SE 7 11 4 6 1015.4 1015.2 0.0
21/08:00pm 27.2 24.1 0.1 17 12.7 ESE 6 7 3 4 1015.2 1015.0 0.0
21/07:30pm 28.5 25.5 -1.6 14 13.8 E 4 9 2 5 1014.9 1014.7 0.0
21/07:00pm 29.0 25.4 -2.2 13 14.2 ENE 7 13 4 7 1015.1 1014.9 0.0
21/06:30pm 29.1 25.1 -2.1 13 14.3 NNE 9 15 5 8 1015.1 1014.9 0.0
21/06:00pm 29.1 25.5 -2.1 13 14.3 W 7 13 4 7 1015.2 1015.0 0.0
21/05:30pm 29.3 25.3 -1.9 13 14.4 N 9 17 5 9 1015.4 1015.2 0.0
21/05:00pm 28.4 24.5 -1.6 14 13.8 SSE 9 17 5 9 1015.8 1015.6 0.0
21/04:30pm 28.6 25.2 -0.5 15 13.7 E 7 13 4 7 1016.2 1016.0 0.0
21/04:00pm 28.5 25.1 -0.6 15 13.6 WNW 7 13 4 7 1016.7 1016.5 0.0
21/03:30pm 28.7 24.9 -0.5 15 13.7 W 9 19 5 10 1017.0 1016.8 0.0
21/03:00pm 27.5 23.1 -2.3 14 13.4 ESE 11 28 6 15 1017.5 1017.3 0.0
21/02:30pm 27.4 23.7 0.2 17 12.8 NE 9 17 5 9 1018.1 1017.8 0.0
21/02:00pm 26.2 22.6 0.8 19 12.0 NE 9 15 5 8 1018.5 1018.2 0.0
21/01:30pm 25.6 22.0 0.3 19 11.8 ENE 9 15 5 8 1018.9 1018.6 0.0
21/01:00pm 25.6 21.7 1.0 20 11.6 NE 11 19 6 10 1019.7 1019.4 0.0
21/12:30pm 25.3 21.4 1.4 21 11.3 NNE 11 19 6 10 1020.1 1019.8 0.0
21/12:00pm 24.9 21.5 1.7 22 11.0 NW 9 17 5 9 1020.3 1020.0 0.0
21/11:30am 24.0 19.4 1.6 23 10.6 NNE 15 20 8 11 1020.6 1020.3 0.0
21/11:00am 23.6 19.4 1.9 24 10.2 NE 13 19 7 10 1020.8 1020.5 0.0
21/10:30am 22.2 18.2 2.8 28 9.2 NE 13 17 7 9 1020.9 1020.6 0.0
21/10:00am 21.4 17.6 4.0 32 8.4 NE 13 19 7 10 1020.6 1020.3 0.0
21/09:30am 18.9 15.6 4.3 38 7.0 ENE 11 17 6 9 1020.6 1020.3 0.0
21/09:00am 16.9 12.8 4.3 43 5.9 ENE 15 20 8 11 1020.3 1020.0 0.0
21/08:30am 14.7 11.3 4.1 49 4.9 E 11 17 6 9 1020.0 1019.7 0.0
21/08:00am 11.4 8.8 3.4 58 3.5 SE 6 7 3 4 1019.7 1019.4 0.0
21/07:30am 9.1 6.2 2.4 63 2.8 SSE 7 7 4 4 1019.1 1018.8 0.0
21/07:00am 9.5 6.5 1.9 59 3.2 SSE 7 9 4 5 1018.8 1018.5 0.0
21/06:30am 10.1 6.7 1.7 56 3.5 SSE 9 11 5 6 1018.7 1018.4 0.0
21/06:00am 9.8 6.8 1.9 58 3.3 S 7 11 4 6 1018.3 1018.0 0.0
21/05:30am 10.3 7.4 2.4 58 3.4 S 7 11 4 6 1018.2 1017.9 0.0
21/05:00am 10.7 7.7 2.0 55 3.7 S 7 9 4 5 1018.0 1017.7 0.0
21/04:30am 10.7 7.8 2.5 57 3.5 S 7 7 4 4 1017.9 1017.6 0.0
21/04:00am 11.3 8.3 2.3 54 3.9 S 7 9 4 5 1017.9 1017.6 0.0
21/03:30am 12.9 10.0 2.5 49 4.6 S 7 11 4 6 1018.0 1017.7 0.0
21/03:00am 13.6 10.0 2.8 48 4.8 SSW 11 13 6 7 1018.0 1017.7 0.0
21/02:30am 14.7 11.0 2.6 44 5.4 SSW 11 17 6 9 1018.1 1017.8 0.0
21/02:00am 14.7 11.4 2.3 43 5.5 SW 9 13 5 7 1018.2 1017.9 0.0
21/01:30am 14.6 11.2 1.8 42 5.6 SW 9 13 5 7 1018.3 1018.0 0.0
21/01:00am 13.9 10.5 1.9 44 5.2 SW 9 11 5 6 1018.5 1018.2 0.0
21/12:30am 13.2 10.7 1.8 46 4.9 SW 4 7 2 4 1018.4 1018.1 0.0
21/12:00am 13.3 10.4 2.5 48 4.7 SW 7 9 4 5 1018.6 1018.3 0.0
 
Date/Time
EDT
Temp
°C
App
Temp
°C
Dew
Point
°C
Rel
Hum
%
Delta-T
°C
Wind Press
QNH
hPa
Press
MSL
hPa
Rain since
9am
mm
Dir  Spd
km/h
Gust
km/h
Spd
kts
Gust
kts
20/11:30pm 13.8 11.0 2.1 45 5.1 SW 6 7 3 4 1018.6 1018.3 0.0
20/11:00pm 14.6 13.0 2.5 44 5.4 CALM 0 0 0 0 1018.4 1018.1 0.0
20/10:30pm 15.2 13.6 2.7 43 5.6 CALM 0 6 0 3 1018.3 1018.0 0.0
20/10:00pm 16.5 14.8 1.8 37 6.5 CALM 0 6 0 3 1018.0 1017.7 0.0
20/09:30pm 17.6 14.6 2.0 35 7.0 NNE 7 9 4 5 1017.7 1017.4 0.0
20/09:00pm 18.7 15.7 1.7 32 7.7 NE 7 7 4 4 1017.2 1017.0 0.0
20/08:30pm 20.4 17.3 1.3 28 8.7 NNE 7 7 4 4 1016.8 1016.6 0.0
20/08:00pm 21.8 18.8 0.9 25 9.5 SSW 6 9 3 5 1016.3 1016.1 0.0
20/07:30pm 22.4 18.8 0.3 23 10.0 S 9 15 5 8 1015.9 1015.7 0.0
20/07:00pm 22.6 18.9 -0.2 22 10.3 S 9 17 5 9 1015.7 1015.5 0.0
20/06:30pm 22.8 17.6 0.0 22 10.3 SSW 17 28 9 15 1015.5 1015.3 0.0

Other Formats:

Comma delimited format used in spreadsheet applications
http://www.bom.gov.au/fwo/IDN60801/IDN60801.94693.axf

JavaScript Object Notation format (JSON) in row-major order
http://www.bom.gov.au/fwo/IDN60801/IDN60801.94693.json